Temperature
5 5 4 4 4 4 4 4 3 3 3 3 3 3 3 3 3 3 3 3 3 3 3 3 4 4 4 4 4 4 5 5 5 5 6 6 6 7 7 7 7 7 7
5 4 4 4 4 3 3 3 3 3 3 3 3 3 3 3 3 3 3 3 3 3 3 3 3 4 4 4 4 4 4 4 5 5 5 5 6 6 6 6 6 7 7
4 4 4 3 3 3 3 3 3 2 2 2 3 3 3 3 3 3 3 3 3 3 3 3 3 3 3 3 4 4 4 4 4 4 5 5 5 6 6 6 6 6 6
4 3 3 3 3 3 3 3 2 2 2 2 2 2 2 2 3 3 2 2 2 2 3 3 3 3 3 3 3 4 4 4 4 4 4 5 5 5 5 5 5 6 6
3 3 3 2 2 2 2 2 2 2 2 2 2 2 2 2 2 2 2 2 2 2 2 3 3 3 3 3 3 3 3 4 4 4 4 4 4 5 5 5 5 5 5
3 2 2 2 2 2 2 2 2 2 2 2 2 2 2 2 2 2 1 1 2 2 2 2 2 3 3 3 3 3 3 4 4 4 4 4 5 5 5 5 5 4 4
2 2 2 2 2 2 2 1 1 1 1 1 1 1 1 2 2 1 1 1 1 2 2 2 2 2 3 3 3 3 4 4 4 4 4 4 4 5 5 4 5 4 4
2 2 2 1 1 1 1 1 1 1 1 1 1 1 1 1 1 1 1 1 1 1 2 2 2 2 2 3 3 3 3 4 4 4 4 4 5 5 5 4 4 4 4
2 1 1 1 1 1 1 1 1 1 1 1 1 1 1 1 1 1 1 1 1 1 1 2 2 2 2 3 3 3 3 3 3 4 4 4 4 4 4 4 4 4 3
1 1 1 1 1 0 0 0 0 0 0 1 1 0 0 0 1 1 1 0 1 1 1 1 2 2 2 2 2 2 3 3 3 3 3 3 4 4 4 4 4 4 3
1 1 1 0 0 0 0 0 -0 -0 -0 0 0 0 0 0 0 0 0 0 0 0 1 1 1 2 2 2 2 3 3 3 3 3 3 3 3 3 3 3 3 4 4
1 0 0 0 0 -0 -0 -0 -0 -0 -1 -1 -1 -0 -0 -0 -0 -0 -0 -0 0 0 0 1 1 2 2 2 2 2 2 2 2 2 2 3 3 3 3 3 3 3 3
-0 -0 -0 -0 -0 -1 -1 -1 -1 -1 -1 -1 -1 -1 -1 -1 -1 -1 -0 -0 -0 0 0 0 1 1 2 2 2 2 2 2 2 2 2 2 3 3 3 3 2 2 2
-1 -0 -1 -1 -1 -1 -1 -1 -1 -1 -2 -2 -2 -2 -2 -1 -1 -1 -1 -1 -0 -0 -0 0 1 1 1 1 2 2 2 2 2 2 2 2 2 2 2 2 2 2 2
-1 -1 -1 -1 -1 -1 -1 -2 -2 -2 -2 -2 -2 -2 -2 -2 -2 -1 -1 -1 -1 -0 -0 0 0 1 1 1 1 2 2 2 2 2 2 2 2 2 2 2 2 2 2
-1 -2 -2 -2 -2 -2 -2 -2 -2 -2 -2 -2 -2 -2 -2 -2 -2 -1 -1 -1 -1 -0 0 0 0 0 1 1 1 1 1 1 1 1 1 1 2 2 2 1 1 2 1
-2 -2 -2 -2 -3 -3 -3 -3 -3 -2 -2 -2 -2 -2 -2 -2 -2 -1 -1 -1 -0 -0 0 -0 -0 0 0 1 1 1 1 1 1 1 1 1 1 1 1 1 1 1 1
-2 -2 -3 -3 -3 -3 -3 -3 -3 -3 -3 -3 -2 -2 -2 -2 -2 -1 -1 -1 -1 -0 -0 -0 -0 -0 0 1 1 1 1 1 1 1 1 1 1 1 1 1 1 1 1
-3 -3 -3 -3 -3 -3 -3 -3 -3 -3 -3 -3 -3 -2 -2 -2 -2 -1 -1 -1 -1 -1 -1 -1 -1 -0 -0 0 1 1 1 1 1 1 1 1 1 1 1 1 1 1 1
-3 -3 -3 -3 -3 -3 -3 -3 -3 -3 -3 -3 -3 -3 -3 -2 -2 -2 -2 -1 -1 -1 -1 -1 -1 -0 -0 0 0 0 0 0 0 0 0 1 1 1 1 1 1 0 0
-3 -3 -3 -3 -3 -3 -3 -3 -3 -3 -3 -3 -3 -3 -3 -3 -2 -2 -2 -2 -2 -2 -1 -1 -1 -1 -0 -0 0 0 0 0 0 0 0 0 0 0 1 0 0 0 -0
-4 -4 -4 -3 -3 -3 -3 -3 -3 -3 -3 -3 -3 -3 -3 -3 -3 -2 -2 -2 -2 -2 -1 -1 -1 -1 -1 -0 -0 0 0 0 0 0 0 0 0 0 0 -0 -0 -0 -0
-4 -4 -4 -4 -4 -4 -4 -4 -4 -3 -3 -3 -3 -3 -3 -3 -3 -3 -2 -2 -2 -2 -2 -1 -1 -1 -1 -0 -0 -0 0 0 0 0 0 0 -0 -0 -0 -0 -0 -0 -0
-4 -4 -4 -4 -4 -4 -4 -4 -4 -4 -4 -4 -3 -3 -3 -3 -3 -3 -3 -2 -2 -2 -2 -1 -1 -1 -1 -0 -0 -0 -0 -0 -0 -0 -0 0 -0 -0 -0 -0 -0 -0 -0
-5 -5 -5 -5 -5 -4 -4 -4 -4 -4 -4 -4 -4 -3 -3 -3 -3 -3 -3 -3 -2 -2 -2 -2 -1 -1 -1 -0 -0 -0 -1 -0 -0 -0 -0 -0 -0 -0 -0 -0 -0 -1 -1
-5 -5 -5 -5 -5 -5 -5 -5 -4 -4 -4 -4 -4 -4 -3 -3 -3 -3 -3 -3 -2 -2 -2 -2 -2 -1 -1 -1 -1 -1 -1 -0 -0 -0 -0 -0 -0 -0 -0 -0 -0 -1 -1
Wind_Speed
6 6 7 7 7 7 7 8 8 8 8 9 10 10 10 10 10 10 10 10 11 11 11 12 12 10 9 8 8 8 8 7 9 8 5 5 6 7 6 7 8 8 10
6 6 7 7 7 7 8 9 8 9 9 10 10 10 10 10 9 10 11 11 11 12 12 12 12 10 11 9 9 9 8 7 7 9 6 5 6 7 6 6 5 6 8
6 6 7 7 8 8 9 9 8 8 9 10 9 10 10 10 9 10 10 11 11 11 12 12 12 11 11 9 9 9 8 7 7 8 8 5 5 5 5 5 4 4 5
5 6 7 8 8 8 9 8 8 8 9 9 9 9 9 10 10 9 9 10 10 10 11 11 12 12 13 11 10 9 8 7 7 7 7 6 5 4 5 5 4 3 3
5 6 7 8 8 7 8 8 8 8 9 8 9 8 8 8 8 9 8 9 10 10 10 11 11 13 15 13 10 9 8 7 7 7 7 5 5 5 6 4 4 3 2
5 6 7 7 7 7 8 8 8 8 8 8 8 8 8 8 12 14 11 8 8 9 9 9 10 12 14 15 16 15 13 11 10 8 7 8 7 6 4 5 5 3 2
5 6 7 7 8 8 9 8 8 8 8 8 8 7 7 9 14 14 13 9 7 7 7 7 8 9 11 9 11 12 12 14 14 10 10 10 8 7 6 6 6 4 2
6 7 7 7 8 8 8 8 8 8 7 7 7 7 7 9 13 13 13 9 7 7 7 7 8 8 9 9 7 7 8 8 9 8 8 8 7 7 7 6 5 3 2
6 7 7 7 8 8 8 8 7 7 7 7 7 7 7 9 12 12 11 5 5 6 7 7 8 8 10 10 7 7 6 5 4 6 6 6 6 7 8 6 6 6 2
7 7 7 7 7 8 8 8 6 6 7 7 7 6 6 7 10 12 11 5 5 5 5 5 8 9 9 9 8 7 7 6 4 3 4 3 4 6 8 7 7 7 3
6 7 7 7 7 7 7 6 6 7 7 7 7 7 5 6 9 11 11 4 3 4 4 4 5 9 9 9 8 7 8 6 5 4 3 3 3 4 4 3 4 5 4
6 6 7 7 7 7 7 7 6 6 6 6 6 7 5 5 7 8 8 7 6 4 4 4 4 6 7 7 6 6 7 6 4 4 4 3 4 4 4 4 5 4 3
6 7 7 8 7 6 6 7 6 5 5 5 5 6 6 4 5 8 7 7 7 4 3 6 6 5 4 4 5 6 6 5 5 5 5 3 4 5 5 5 6 6 6
6 7 6 7 7 6 5 5 5 5 5 5 5 5 6 5 4 4 4 4 5 4 4 4 4 3 2 2 3 3 4 5 6 5 5 4 5 5 5 5 5 5 5
6 6 6 6 6 6 6 5 5 5 5 6 5 5 6 6 7 9 6 4 3 3 3 2 2 1 0 1 2 2 3 4 5 5 6 5 6 6 5 4 4 4 4
6 6 5 5 5 5 5 6 8 8 10 10 9 8 6 7 10 10 9 8 7 6 3 2 1 2 1 1 2 3 3 4 5 5 6 6 6 6 5 5 5 5 6
6 6 5 5 5 5 5 6 7 9 9 9 9 9 9 10 10 9 8 7 6 4 1 1 2 1 1 1 2 3 3 4 5 5 6 6 6 6 6 6 6 6 6
6 6 6 5 5 5 5 5 5 6 7 7 8 9 9 9 9 9 8 5 3 3 1 1 1 1 1 1 2 3 4 4 5 6 6 6 7 7 7 7 6 7 7
5 5 5 4 4 5 5 5 5 6 6 6 6 7 8 9 9 8 7 3 2 2 2 2 1 1 1 1 2 3 4 5 6 6 6 6 6 7 7 7 7 9 7
5 8 7 5 4 4 4 4 5 5 5 5 5 6 6 5 4 5 4 3 2 2 1 1 1 1 1 1 2 3 4 5 6 6 6 5 5 6 7 8 7 7 6
5 6 8 6 4 4 4 4 4 5 5 5 5 6 7 4 4 4 4 3 3 2 2 1 1 1 1 1 2 3 5 5 5 6 6 5 6 6 6 6 7 7 7
4 4 4 4 4 4 4 4 4 4 4 5 5 5 8 4 3 3 3 3 3 2 2 1 1 1 0 1 2 3 4 5 6 6 6 6 6 6 7 6 7 7 8
4 4 4 4 4 6 6 5 4 4 4 4 4 4 4 3 3 3 3 3 3 3 2 1 1 1 1 1 1 2 4 5 5 6 7 6 6 6 7 7 9 9 9
4 5 5 5 5 4 4 5 5 5 5 4 4 3 3 3 3 3 3 3 3 3 2 2 1 2 2 2 2 2 3 5 6 6 8 8 7 6 7 8 8 9 9
4 5 5 5 5 5 5 5 5 5 5 4 4 3 3 2 2 3 3 3 3 2 3 2 2 2 3 3 3 4 7 9 8 7 7 7 7 7 8 9 9 9 9
5 5 5 5 4 4 4 4 4 5 5 4 4 3 3 2 2 2 2 2 3 3 3 2 3 3 3 3 4 7 9 10 10 10 8 7 8 8 9 8 10 10 10
Wind_Direction
275 276 281 282 278 275 273 271 270 270 268 268 266 267 264 260 255 250 247 248 244 244 241 237 237 234 234 233 228 228 230 229 248 268 259 232 224 221 221 207 207 213 211
276 278 279 283 284 283 278 275 273 273 271 270 268 266 263 260 255 250 251 250 245 245 242 237 239 237 232 231 229 228 229 226 233 253 258 238 236 215 211 209 217 220 207
280 282 286 287 284 281 282 281 278 276 276 274 272 267 264 262 259 253 250 251 250 247 243 236 237 234 235 233 231 231 229 231 226 234 247 244 243 218 204 219 221 221 207
289 291 291 289 285 280 283 284 283 281 279 276 275 269 267 264 263 258 253 252 255 251 245 238 236 234 234 231 234 230 226 226 226 227 234 236 236 213 198 204 219 216 213
295 294 290 290 290 287 287 287 287 284 283 280 281 278 274 270 266 262 258 257 258 256 249 241 237 238 239 235 236 226 218 220 223 224 226 237 234 207 209 201 209 201 210
292 292 292 296 299 297 294 292 291 289 286 284 281 279 278 278 281 279 273 263 259 255 253 246 238 238 243 242 241 237 228 222 219 219 226 223 231 215 210 194 187 188 224
293 296 298 299 300 299 301 301 297 293 288 287 282 277 277 279 284 285 282 277 265 257 253 248 246 242 244 229 234 238 237 237 233 223 220 221 222 208 191 195 192 193 215
295 298 299 300 300 302 304 304 301 297 292 288 284 280 279 282 289 290 286 280 268 261 254 249 244 241 236 225 220 228 232 234 232 227 220 224 219 202 194 197 183 144 97
295 296 297 298 301 304 305 305 306 305 301 294 293 290 284 287 291 291 289 280 274 266 259 254 243 238 238 233 225 226 229 238 233 208 198 200 200 194 180 165 164 157 172
293 294 297 298 300 302 302 302 304 304 300 303 301 296 287 286 288 293 293 280 277 273 265 256 249 243 241 244 227 215 217 221 199 169 162 173 190 182 182 186 179 172 171
296 300 302 302 300 299 302 304 308 307 307 307 305 304 299 295 302 303 299 284 274 276 274 270 261 251 247 247 236 217 210 205 185 176 174 170 167 162 160 160 166 173 178
307 306 305 306 307 312 308 307 308 309 308 310 311 312 311 306 306 308 307 299 292 285 283 278 269 265 250 241 232 204 193 192 178 166 165 168 164 157 146 132 120 106 116
312 311 311 313 313 313 309 310 313 312 307 310 315 317 320 323 321 318 318 320 320 315 307 295 286 280 262 236 201 189 186 183 170 169 172 173 159 151 139 123 109 99 84
313 314 315 318 319 321 320 317 315 313 309 307 310 312 314 317 319 326 333 336 333 324 317 314 311 302 282 209 183 182 185 178 169 168 164 156 146 143 146 145 141 129 107
315 314 316 316 315 324 327 322 316 308 298 299 301 303 307 312 313 318 322 316 310 298 314 321 326 314 189 169 167 165 163 158 158 157 156 152 147 144 143 140 143 135 134
316 315 314 314 315 318 323 328 329 322 318 312 310 307 310 309 315 318 322 315 310 307 317 327 329 329 284 190 161 150 152 156 157 154 150 150 149 148 143 137 138 138 137
309 310 312 313 314 317 322 323 324 330 332 328 323 321 317 318 317 319 325 324 322 329 350 331 319 320 326 152 149 148 148 149 147 146 147 149 146 144 145 145 144 139 136
312 310 311 309 312 316 317 315 314 318 324 327 330 331 329 328 327 325 330 338 344 357 3 329 315 326 1 132 138 138 139 137 139 141 144 147 147 147 148 150 151 145 142
315 314 311 310 312 313 315 316 316 315 315 316 322 328 332 332 335 339 341 348 339 346 347 343 337 340 17 115 126 135 140 140 140 142 144 146 148 147 147 148 145 142 139
319 318 321 318 316 318 319 318 317 317 317 317 320 321 325 335 343 343 348 352 355 346 343 354 352 360 33 113 127 136 137 137 139 139 143 145 146 145 145 144 144 145 141
317 321 324 323 320 316 316 313 310 310 310 312 314 320 328 334 331 333 344 356 356 352 353 16 30 32 55 115 127 132 138 139 142 144 145 144 142 138 137 137 137 136 133
316 319 322 319 318 321 320 317 314 311 312 312 315 325 334 337 339 343 350 350 350 354 355 20 27 19 35 131 144 143 145 144 145 144 140 137 135 135 135 134 134 134 133
318 318 321 321 319 318 320 321 319 317 314 314 318 323 334 344 348 349 349 350 356 359 1 15 28 19 23 55 122 146 150 153 151 148 143 140 139 139 140 139 139 137 138
318 317 317 317 317 317 318 319 320 319 316 316 321 324 332 338 346 350 351 355 360 2 7 18 29 36 33 47 78 100 124 135 136 142 141 142 138 138 139 138 137 139 140
320 317 314 312 312 313 315 317 319 320 321 322 323 326 332 341 347 349 354 4 8 18 17 19 32 44 50 59 90 110 123 128 133 134 133 135 134 136 138 137 137 138 137
321 318 314 310 308 310 311 313 316 319 318 319 322 329 336 341 346 352 360 13 20 19 19 32 38 47 53 69 101 118 124 125 130 131 129 132 132 134 135 134 135 137 138
Height
1419 1416 1414 1411 1409 1406 1403 1401 1398 1396 1395 1392 1391 1389 1387 1386 1385 1384 1383 1384 1384 1384 1386 1387 1388 1390 1392 1394 1395 1397 1399 1400 1399 1397 1399 1402 1404 1406 1408 1410 1412 1413 1415
1414 1411 1408 1406 1403 1400 1397 1395 1392 1390 1388 1386 1384 1382 1380 1379 1378 1377 1376 1376 1376 1376 1377 1378 1380 1382 1384 1386 1388 1389 1391 1392 1394 1392 1393 1395 1397 1399 1401 1403 1405 1407 1409
1409 1406 1403 1400 1397 1394 1391 1389 1386 1384 1381 1379 1377 1375 1374 1372 1371 1370 1369 1369 1369 1369 1369 1370 1372 1374 1376 1378 1380 1381 1383 1385 1388 1388 1387 1390 1391 1393 1395 1397 1399 1401 1403
1404 1401 1398 1394 1391 1388 1385 1383 1380 1377 1375 1373 1371 1369 1367 1366 1364 1363 1362 1362 1361 1361 1362 1363 1364 1367 1368 1370 1372 1374 1376 1379 1381 1382 1382 1383 1385 1387 1389 1390 1392 1395 1397
1399 1396 1393 1390 1386 1383 1380 1377 1374 1372 1369 1367 1365 1363 1361 1359 1358 1356 1355 1355 1354 1354 1354 1355 1357 1359 1361 1363 1365 1367 1369 1372 1374 1375 1376 1377 1379 1381 1383 1384 1387 1389 1391
1395 1392 1389 1385 1382 1378 1375 1372 1369 1366 1364 1362 1360 1357 1355 1353 1352 1350 1349 1348 1348 1347 1347 1348 1350 1352 1354 1356 1358 1361 1363 1365 1366 1368 1369 1371 1372 1375 1378 1379 1382 1384 1386
1391 1388 1385 1381 1377 1374 1371 1367 1364 1361 1359 1356 1354 1352 1350 1347 1346 1344 1344 1343 1342 1342 1341 1342 1344 1345 1348 1349 1351 1353 1356 1358 1361 1362 1363 1365 1367 1369 1372 1375 1377 1380 1382
1386 1383 1380 1377 1373 1370 1366 1363 1360 1357 1354 1351 1349 1347 1344 1342 1341 1339 1339 1338 1337 1336 1337 1337 1338 1339 1341 1342 1344 1346 1348 1351 1354 1356 1358 1359 1362 1365 1368 1371 1373 1375 1378
1382 1379 1376 1373 1369 1365 1362 1359 1356 1352 1350 1347 1344 1342 1339 1337 1336 1335 1334 1333 1332 1331 1331 1332 1333 1334 1335 1337 1339 1340 1342 1344 1348 1350 1352 1354 1357 1360 1363 1367 1369 1372 1374
1378 1375 1372 1369 1365 1362 1358 1355 1352 1349 1346 1343 1340 1337 1335 1333 1331 1330 1329 1328 1327 1326 1326 1326 1327 1328 1329 1331 1333 1334 1336 1338 1342 1344 1347 1349 1352 1355 1359 1363 1365 1368 1371
1374 1371 1368 1365 1362 1358 1354 1351 1348 1345 1341 1338 1335 1333 1331 1329 1327 1325 1324 1323 1322 1321 1321 1321 1321 1323 1324 1325 1327 1329 1330 1333 1336 1339 1341 1344 1347 1351 1355 1359 1362 1366 1368
1370 1367 1364 1361 1358 1354 1350 1347 1344 1341 1337 1334 1331 1328 1327 1325 1324 1322 1320 1320 1319 1317 1316 1316 1316 1317 1318 1319 1321 1323 1326 1329 1332 1334 1337 1340 1343 1347 1351 1355 1359 1363 1366
1367 1364 1361 1357 1354 1351 1347 1343 1340 1337 1334 1331 1328 1325 1323 1322 1320 1319 1317 1316 1315 1314 1313 1312 1312 1312 1313 1314 1316 1319 1322 1324 1327 1329 1332 1336 1341 1345 1349 1353 1357 1360 1364
1363 1360 1357 1353 1350 1346 1343 1340 1337 1334 1331 1329 1326 1324 1321 1319 1317 1315 1314 1313 1312 1311 1310 1309 1308 1307 1308 1310 1312 1314 1317 1320 1323 1326 1330 1334 1339 1343 1347 1350 1354 1357 1361
1359 1356 1353 1350 1346 1343 1340 1337 1334 1332 1330 1327 1325 1322 1320 1316 1315 1314 1312 1311 1310 1309 1308 1306 1305 1305 1305 1307 1309 1311 1314 1317 1320 1324 1328 1332 1336 1340 1344 1348 1352 1355 1358
1356 1353 1350 1347 1343 1340 1337 1334 1332 1330 1327 1325 1323 1321 1318 1316 1314 1312 1310 1309 1308 1308 1307 1304 1304 1304 1304 1305 1306 1309 1312 1315 1318 1322 1326 1330 1334 1338 1342 1346 1350 1354 1357
1353 1350 1347 1344 1341 1338 1335 1331 1328 1325 1324 1322 1320 1317 1315 1313 1311 1310 1308 1308 1307 1306 1305 1304 1303 1303 1303 1304 1306 1308 1311 1314 1317 1321 1324 1328 1333 1337 1341 1345 1348 1352 1356
1350 1347 1344 1341 1339 1336 1333 1330 1327 1324 1320 1317 1316 1315 1313 1311 1309 1308 1307 1306 1305 1304 1304 1303 1303 1303 1303 1304 1306 1308 1311 1314 1317 1320 1324 1328 1332 1336 1340 1344 1347 1351 1355
1348 1345 1342 1339 1336 1334 1331 1329 1326 1323 1320 1317 1314 1312 1311 1309 1308 1307 1306 1305 1304 1303 1303 1303 1302 1302 1303 1305 1306 1309 1311 1314 1317 1321 1324 1328 1332 1335 1339 1343 1347 1351 1354
1345 1343 1340 1337 1334 1332 1329 1327 1324 1322 1319 1316 1314 1312 1310 1309 1307 1306 1306 1305 1304 1304 1303 1303 1303 1303 1304 1306 1307 1310 1312 1315 1318 1321 1325 1328 1332 1335 1339 1343 1346 1350 1354
1343 1340 1338 1335 1333 1330 1328 1325 1323 1321 1318 1316 1314 1313 1312 1310 1308 1307 1306 1306 1305 1304 1304 1304 1304 1305 1305 1307 1308 1310 1313 1315 1318 1322 1325 1328 1332 1336 1339 1343 1347 1350 1354
1341 1338 1336 1334 1331 1328 1326 1324 1322 1319 1317 1315 1313 1312 1311 1310 1309 1307 1307 1306 1306 1305 1305 1305 1305 1306 1307 1308 1309 1311 1313 1316 1319 1322 1325 1329 1332 1336 1339 1343 1347 1350 1354
1339 1337 1334 1332 1329 1327 1325 1322 1320 1318 1316 1315 1313 1312 1311 1310 1309 1308 1307 1306 1306 1306 1306 1306 1306 1307 1308 1309 1311 1312 1314 1317 1319 1322 1325 1329 1332 1336 1339 1343 1347 1350 1354
1337 1335 1332 1330 1327 1325 1323 1321 1319 1317 1315 1314 1313 1312 1311 1310 1309 1308 1308 1307 1307 1307 1307 1307 1307 1308 1309 1310 1311 1313 1315 1317 1320 1323 1326 1329 1332 1336 1340 1343 1347 1351 1354
1335 1333 1331 1328 1326 1324 1322 1320 1318 1316 1315 1314 1313 1312 1311 1310 1309 1308 1308 1308 1307 1307 1308 1308 1308 1309 1310 1311 1313 1314 1316 1318 1320 1323 1327 1330 1333 1337 1340 1344 1347 1351 1355
1333 1331 1329 1327 1325 1323 1321 1319 1317 1316 1315 1314 1313 1312 1311 1310 1309 1309 1309 1308 1308 1308 1309 1309 1310 1310 1311 1312 1314 1315 1317 1319 1322 1325 1328 1331 1334 1337 1341 1344 1348 1352 1355